www.pogodaiklimat.ru

Погода и климат >> Архив погоды >> Россия >> Якутия >> Оленек


АРХИВ ПОГОДЫ в Оленеке

Время (UTC), дата Ветер
(напр.,м/с)
 
Видим.   Явления Облачность Т
(С)
Тd
(С)
f
(%)
Тe
(С)
Тes
(С)
Комфортность P
(гПа)
Po
(гПа)
Тmin
(С)
Tmax
(С)
R
(мм)
R24
(мм)
S
(см)
06 9.01 В 3 20 км 6/0
[Ci fib]
-34.8 -38.4 70 -45 -45 опасность
обморожения
1005.8 974.8
09 9.01 В 3 20 км 3/0
[Ci fib]
-36.2 -40.4 65 -47 -47 опасность
обморожения
1007.3 976.0
12 9.01 В 2 н/о н/о -37.7 -41.6 67 -46 -46 опасность
обморожения
1008.7 977.1 -33.0
15 9.01 ЮВ 2 н/о н/о -38.6 -42.5 66 -48 -48 опасность
обморожения
1009.4 977.7
18 9.01 В 1 н/о н/о -39.7 -43.6 66 -45 -45 опасность
обморожения
1010.2 978.3
21 9.01 ЮВ 1 н/о н/о -40.9 -44.9 65 -46 -46 опасность
обморожения
1011.0 979.0
00 10.01 штиль 0 4000 м дымка ясно -41.6 -45.6 65 -42 -42 опасность
обморожения
1011.8 979.6 -42.2 18
03 10.01 В 1 4000 м дымка 4/0
[Ci fib]
-43.2 -47.4 63 -49 -49 опасность
обморожения
1012.1 979.7 -43.2
06 10.01 штиль 0 4000 м дымка 6/0
[Ci fib]
-43.3 -47.4 64 -43 -43 опасность
обморожения
1012.5 980.0
09 10.01 штиль 0 4000 м дымка 6/0
[Ci fib]
-43.2 -47.4 63 -43 -43 опасность
обморожения
1012.8 980.4
12 10.01 штиль 0 н/о н/о -43.8 -48.0 63 -44 -44 опасность
обморожения
1012.9 980.4 -41.5
15 10.01 В 1 н/о н/о -44.1 -48.3 63 -50 -50 опасность
обморожения
1012.4 979.9
18 10.01 В 1 н/о н/о -45.4 -49.6 62 -51 -51 опасность
обморожения
1012.2 979.5
21 10.01 ЮВ 2 н/о н/о -46.0 -71.4 62 -56 -56 опасность
обморожения
1011.8 979.0
00 11.01 В 1 4000 м дымка 3/0
[Ci fib]
-46.4 -50.5 63 -52 -52 опасность
обморожения
1011.0 978.2 -46.4 18
03 11.01 В 1 4000 м дымка 3/0
[Ci fib]
-45.9 -50.5 59 -52 -52 опасность
обморожения
1010.7 978.0
06 11.01 штиль 0 4000 м дымка 4/0
[Ci fib]
-45.4 -49.7 62 -45 -45 опасность
обморожения
1010.3 977.6
09 11.01 штиль 0 4000 м слаб. снег 10/0
[Ac trans Cs]
-42.3 -46.1 66 -42 -42 опасность
обморожения
1010.0 977.8
12 11.01 штиль 0 н/о н/о -42.8 -46.9 64 -43 -43 опасность
обморожения
1010.8 978.5 -42.3
15 11.01 штиль 0 н/о н/о -43.4 -47.6 63 -43 -43 опасность
обморожения
1011.6 979.2
18 11.01 штиль 0 н/о н/о -44.7 -48.9 63 -45 -45 опасность
обморожения
1013.1 980.5
21 11.01 штиль 0 н/о н/о -45.7 -49.9 62 -46 -46 опасность
обморожения
1014.7 981.9
00 12.01 В 2 н/о н/о -46.6 -50.8 62 -57 -57 опасность
обморожения
1016.5 983.4 -47.1
03 12.01 В 2 н/о н/о -47.7 -52.0 61 -58 -58 опасность
обморожения
1017.8 984.6 -48.9
06 12.01 В 2 н/о н/о -47.8 -52.1 61 -58 -58 опасность
обморожения
1019.3 986.0
09 12.01 В 2 н/о н/о -46.7 -51.0 61 -57 -57 опасность
обморожения
1020.6 987.5
12 12.01 В 2 н/о н/о -48.1 -52.4 61 -59 -59 опасность
обморожения
1022.1 988.7 -46.6
15 12.01 В 3 н/о н/о -49.6 -53.9 60 -63 -63 опасность
обморожения
1022.1 988.7
18 12.01 В 2 н/о н/о -50.0 -54.4 59 -61 -61 опасность
обморожения
1022.1 988.7
21 12.01 штиль 0 н/о н/о -50.5 -54.9 59 -51 -51 опасность
обморожения
1022.1 988.7
00 13.01 СЗ 1 н/о н/о -51.8 -56.2 59 -58 -58 опасность
обморожения
1022.1 988.7 -52.2
03 13.01 З 1 н/о н/о -52.3 -56.8 58 -59 -59 опасность
обморожения
1022.1 988.7 -53.0
06 13.01 штиль 0 н/о н/о -53.4 -57.9 58 -53 -53 опасность
обморожения
1022.1 988.7
09 13.01 З 3 н/о н/о -54.6 -59.1 57 -69 -69 опасность
обморожения
1022.1 988.7
12 13.01 СЗ 2 4000 м дымка ясно -52.7 -56.9 60 -64 -64 опасность
обморожения
1024.3 999.7 -50.7
15 13.01 штиль 0 н/о н/о -53.9 -58.4 57 -54 -54 опасность
обморожения
1022.1 988.7
18 13.01 З 1 н/о н/о -54.2 -58.7 57 -61 -61 опасность
обморожения
1022.1 988.7
21 13.01 З 1 н/о н/о -53.8 -58.3 57 -61 -61 опасность
обморожения
1022.1 988.7
00 14.01 штиль 0 4000 м дымка 3/0
[Ci fib]
-54.4 -58.8 58 -54 -54 опасность
обморожения
1035.5 1000.6 -55.6 18
03 14.01 ЮВ 1 4000 м дымка 3/0
[Ci fib]
-54.7 -58.8 60 -62 -62 опасность
обморожения
1035.1 1000.2 -55.7
06 14.01 штиль 0 2000 м дымка 3/0 100 м
[Ci fib]
-54.5 -55.3 91 -55 -55 опасность
обморожения
1034.8 1000.0
09 14.01 штиль 0 4000 м дымка ясно -54.9 -55.3 95 -55 -55 опасность
обморожения
1035.2 1000.3
12 14.01 ЮВ 1 н/о н/о -55.5 -60.1 56 -62 -62 опасность
обморожения
1022.1 988.7 -53.6
15 14.01 штиль 0 н/о н/о -56.3 -60.9 56 -56 -56 опасность
обморожения
1022.1 988.7
18 14.01 В 1 н/о н/о -54.5 -59.0 57 -61 -61 опасность
обморожения
1022.1 988.7
21 14.01 В 2 н/о н/о -54.8 -59.4 56 -66 -66 опасность
обморожения
1022.1 988.7
00 15.01 В 3 20 км ясно -54.6 -55.8 86 -69 -69 опасность
обморожения
1035.3 1000.4 -56.4 18
03 15.01 В 5 20 км 3/0
[Ci fib]
-53.9 -55.8 79 -72 -72 опасность
обморожения
1034.2 999.4
06 15.01 В 4 4000 м дымка 4/0
[Ci fib]
-54.0 -55.8 80 -71 -71 опасность
обморожения
1033.2 998.4
09 15.01 В 4 4000 м дымка 3/0
[Ci fib]
-53.3 -55.8 74 -70 -70 опасность
обморожения
1031.5 997.0
12 15.01 В 4 4000 м дымка 3/0
[Ci fib]
-53.3 -55.8 74 -70 -70 опасность
обморожения
1031.5 997.0
15 15.01 В 4 н/о н/о -52.2 -56.8 57 -69 -69 опасность
обморожения
1022.1 988.7 -52.1
18 15.01 В 5 н/о н/о -48.5 -53.0 59 -66 -66 опасность
обморожения
1022.1 988.7
21 15.01 В 4 н/о н/о -35.3 -39.4 66 -48 -48 опасность
обморожения
1022.1 988.7
00 16.01 В 4 10 км слаб. снег 10/0
[As op]
-29.6 -31.9 80 -41 -41 опасность
обморожения
1013.9 983.2 -52.6 0.5 19

 

Местоположение метеостанции Оленек (Якутия, Россия): широта 68.50 долгота 112.40 высота над уровнем моря 220 м.

В архиве по умолчанию представлена погода в Оленеке за последнюю неделю. Архивные данные за месяц целиком и за предыдущие месяцы, начиная с января 2011 года, Вы можете получить, выбрав интересующий диапазон дат из раскрывающегося списка и нажав кнопку "Ввод!".


*Определитесь, кто Вы:
робот инопланетянин человек

Внимание! Время в таблицах - всемирное. Для получения местного времени необходимо прибавить поправку, которая равна 9 ч.

Смотрите также архив погоды в соседних городах и на ближайших метеорологических станциях:

Погода в Джалинде (Якутия, Россия) (191 км)
Погода в Полярном (Якутия, Россия) (197 км)
Погода в Ярольине (Якутия, Россия) (224 км)
Погода в Сухане (Якутия, Россия) (240 км)
Погода в Шелагонцах (Якутия, Россия) (262 км)
Погода в Айхале (Якутия, Россия) (289 км)
Погода в Эйке (Якутия, Россия) (349 км)
Погода в Саскылахе (Якутия, Россия) (391 км)
Погода в Хабардино (Якутия, Россия) (434 км)
Погода в Джарджане (Якутия, Россия) (470 км)

Пояснения к столбцам:

Ветер - указаны скорость ветра в м/с - средняя за 10 мин, порывы в срок и между сроками (в фигурных скобках) и направление, откуда дует ветер: С - северный, СВ - северо-восточный, В - восточный, ЮВ - юго-восточный, Ю - южный, ЮЗ - юго-западный, З - западный, СЗ - северо-западный.
Видимость - горизонтальная дальность видимости в метрах или километрах. При видимости от 1 до 10 км при отсутствии осадков обычно наблюдается дымка, при ухудшении видимости до 1 км и менее - туман. В сухую погоду видимость может ухудшаться дымом, пылью или мглою.
Явления - указаны атмосферные явления, наблюдавшиеся в срок или в последний час перед сроком; фигурными скобками обозначены явления, наблюдавшиеся между сроками (за 1-3 часа до срока); квадратными скобками обозначены град или гололедные отложения с указанием их диаметра в мм.
Облачность - указаны через наклонную черту общая и нижняя облачность в баллах и высота нижней границы облаков в метрах; квадратными скобками обозначены формы облаков: Ci - перистые, Cs - перисто-слоистые, Cc - перисто-кучевые, Ac - высококучевые, As - высокослоистые, Sc - слоисто-кучевые, Ns - слоисто-дождевые, Cu - кучевые, Cb - кучево-дождевые. Подробнее классификацию облаков см. в Атласе облаков (PDF).
T - Температура воздуха - температура, измеренная на высоте 2 м над землей.
Td - Температура точки росы - температура, при понижении до которой содержащийся в воздухе водяной пар достигнет насыщения.
f - Относительная влажность воздуха - влажноcть воздуха, измеренная на высоте 2 м над землей.
Te - Эффективная температура - температура, которую ощущает одетый по сезону человек в тени. Характеристика душности погоды. При расчете учитывается влияние влажности воздуха и скорости ветра на теплоощущения человека.
Tes - Эффективная температура на солнце - температура, которую ощущает человек, с поправкой на солнечный нагрев. Характеристика знойности погоды. Зависит от высоты солнца над горизонтом, облачности и скорости ветра. Ночью, в пасмурную погоду, а также при ветре 12 м/с и более поправка равна нулю.
P - Атмосферное давление - приведенное к уровню моря атмосферное давление.
Po - Атмосферное давление - измеренное на уровне метеостанции атмосферное давление.
Tmin - Минимальная температура - минимум температуры воздуха на высоте 2 м над землей.
Tmax - Максимальная температура - максимум температуры воздуха на высоте 2 м над землей.
R - Количество осадков - Количество выпавших осадков за период времени, мм. При наведении курсора мыши на число - период времени, за который выпало указанное количество осадков.
R24 - Количество осадков - Количество выпавших осадков за 24 часа, мм.
S - Снежный покров - Высота снежного покрова, см. При наведении курсора мыши на число - состояние снежного покрова и степень покрытия местности в баллах.